CAPE
797 1206 1441 1555 1537 1209 1053 922 1124 1093 1175 1138 950 1032 852 1245 1103 1277 1344 1211 868 951 823 437 363 487 736 719 774 837 854 700 1039 985 1320 1299 1250 1266 968 628 19 722 29
856 1316 1372 1575 1642 1439 1233 1180 1257 1326 1044 1242 1291 1231 1120 1251 1192 1272 1459 1225 823 801 984 897 589 767 822 928 1194 1100 781 931 777 871 788 614 873 257 275 844 518 1057 370
902 1269 1247 1541 1727 1655 1608 1545 1385 1430 1293 1382 1454 1427 1269 1166 1263 1152 1312 1286 1257 917 911 1107 1204 1290 1318 1194 1119 740 748 712 1010 1021 541 11 34 688 34 131 978 1014 438
925 998 1122 1540 1770 1824 1657 1741 1865 1718 1446 1443 1440 1288 1343 1568 1540 1336 1389 1287 1368 1228 921 973 1234 1209 1317 1106 866 896 978 1089 698 966 797 59 47 886 508 1043 296 602 839
888 721 1243 1622 1764 1863 1766 1790 1966 1994 1762 1641 1567 1475 1629 1309 1287 1387 1336 1273 1466 1265 1202 1141 1273 1115 1302 775 1000 744 0 47 201 654 830 5 400 1070 1031 794 863 704 467
663 857 1393 1615 1586 1786 1867 1749 1934 1978 1900 1648 1691 1943 1962 1531 1419 1275 1499 994 1071 930 1216 1037 795 624 697 1126 561 433 240 560 824 610 29 2 428 1086 1017 1 704 720 177
636 1522 1299 1538 1519 1663 1774 1624 1812 1795 1715 1746 1716 1680 1659 1606 1465 1470 1408 1341 853 462 1338 940 421 778 1134 961 1275 492 53 0 338 147 434 13 61 532 334 178 0 142 29
1556 1364 1355 1581 1610 1590 1739 1864 1736 1750 1803 1948 1860 1829 1792 1794 1544 1427 1378 1469 792 456 1009 1157 1131 837 1150 995 71 0 0 0 450 204 630 526 747 959 654 551 963 737 749
1323 1057 1344 1527 1695 1680 1561 1794 1875 2085 1862 1728 1606 1606 1692 1790 1627 1574 1608 1456 1054 797 779 1109 1194 1085 789 486 485 95 132 311 751 468 684 59 406 669 1144 696 246 883 345
1185 929 1041 1224 1458 1451 1644 1719 1646 1815 2041 1821 1626 1698 1661 1737 1674 1588 1332 1295 1190 1054 1027 1271 937 1098 926 705 604 225 209 430 513 660 214 0 0 0 547 465 935 185 2
1167 1028 1022 1218 1268 1257 1230 1701 1677 1562 1423 1608 1258 1229 1651 1492 1352 1430 1221 1341 1321 624 1261 1401 972 947 759 606 549 376 596 318 364 449 27 0 0 5 405 619 960 744 170
1049 1100 1088 1156 1287 1226 1042 1201 1447 1341 1432 1263 1416 1441 1519 883 1016 1161 895 1213 1477 584 1258 1270 1198 927 684 364 215 342 176 233 674 103 14 2 0 157 969 945 447 128 62
1190 1201 1415 1387 1267 1308 1222 1410 1086 1195 1333 1231 1246 1266 1342 800 1080 859 944 1357 1010 548 868 1304 1290 1066 502 468 194 161 44 70 169 282 44 23 89 180 549 993 775 421 64
1249 1209 1662 1670 1486 1523 1404 1409 1291 1106 1196 943 1230 942 1116 750 678 960 717 1249 1198 518 231 817 672 522 432 152 112 248 160 90 100 650 203 87 113 159 192 276 822 521 485
1064 1306 1407 1709 1421 1398 1225 1371 1222 1008 1289 1129 1436 1047 979 808 411 703 831 737 938 774 249 384 603 201 90 366 333 360 183 256 326 764 334 236 163 212 342 450 404 818 715
1100 1492 1420 1763 1759 1391 1284 1229 1085 1208 1382 1367 1435 1420 1289 1102 903 650 778 704 555 1139 854 344 881 360 569 172 169 143 148 137 257 504 783 601 419 318 360 527 477 536 848
1038 1410 1542 1748 2023 1207 1402 1088 1187 1279 852 1552 996 1239 1088 1277 1031 754 998 817 701 1161 946 1020 980 1066 217 295 579 280 101 87 126 250 449 999 641 586 400 382 653 542 477
1214 1775 1656 1546 1715 1451 1225 1290 1329 1194 1076 616 1151 1104 1180 933 924 1060 1054 1048 948 1053 866 1028 1052 635 344 613 281 291 182 77 44 84 216 393 815 1008 593 487 562 536 407
1289 1383 1811 1488 1617 1602 1536 1769 1238 1131 893 1104 860 1111 1449 987 1061 857 1061 815 921 1186 1358 1101 985 1019 858 607 585 513 476 556 398 370 286 77 657 828 893 856 729 600 512
1407 1658 1634 1817 1627 1812 1877 1666 1180 1145 1191 719 979 703 1140 1306 1402 1247 1047 1020 964 859 984 1300 1137 1172 625 447 637 704 534 628 340 309 604 228 451 568 976 1077 966 889 725
1615 1710 1777 1760 2139 1951 1779 1347 1409 764 1253 797 735 907 794 932 1243 1341 964 939 845 755 912 1056 1073 848 803 967 602 562 752 839 1027 1145 909 336 462 623 594 1030 1067 1051 1206
1839 1699 2021 1931 1945 2056 1724 1298 1165 1418 986 739 917 883 1190 895 1072 1220 1365 1296 1147 1489 906 1276 1201 789 729 793 595 219 117 330 850 771 444 793 608 635 414 864 1237 1057 1178
1774 2095 1912 2383 2047 2025 1883 1616 1291 1132 1255 916 854 976 1146 1228 1247 1068 1253 966 1414 1377 1074 785 799 878 549 538 752 353 187 125 280 744 874 598 438 866 715 644 1053 1175 1302
1862 2489 2265 2410 2540 2032 1725 1520 1449 1176 952 1120 1393 1289 1359 1400 1433 1100 949 1223 1429 1568 1057 742 885 953 509 430 492 499 390 358 199 136 597 649 294 295 818 1159 1325 1364 990
1915 2383 2719 2275 2925 2342 2093 1650 1438 1137 1210 858 892 870 1375 1171 1446 1269 989 845 947 1272 877 694 835 1102 903 758 492 505 493 364 224 225 162 191 394 275 553 635 526 851 1377
2119 2341 2596 2701 2581 2831 2363 2271 1687 1458 1148 1002 697 1063 1071 1402 1224 1350 1348 971 1054 1256 1163 866 859 862 616 654 571 165 280 219 178 181 150 108 219 98 562 296 280 831 892
CIN
-70 -91 -52 -38 -33 -39 -36 -33 -19 -25 -18 -20 -45 -34 -37 -6 -3 0 0 0 0 0 -3 -15 -16 -11 -10 -12 -10 -11 -14 -12 -10 -14 -10 -5 -3 0 -2 -5 -2 0 -62
-103 -72 -66 -43 -29 -42 -41 -31 -23 -23 -25 -17 -17 -21 -18 -6 -2 0 0 0 -3 -4 0 0 -7 0 -3 0 0 -1 -14 -8 -17 -11 -15 -12 -1 -17 -11 -2 -6 0 -3
-103 -63 -66 -48 -21 -29 -32 -28 -27 -25 -24 -11 -4 -4 -9 -9 0 0 0 0 0 0 -2 0 0 0 0 0 0 -6 -18 -19 -6 -14 -20 -11 -92 0 -25 -17 -6 0 -4
-77 -78 -62 -38 -21 -15 -27 -19 -8 -12 -21 -12 -12 -7 -6 0 -1 -1 0 0 0 0 0 -1 0 0 0 0 0 -7 -23 -6 -17 -22 -17 -36 -41 0 -14 -3 -20 -5 0
-60 -75 -47 -26 -25 -15 -17 -16 -5 -1 -6 -1 -2 -1 -2 -5 0 0 0 -2 0 0 0 0 0 0 0 0 -1 -15 0 -14 -55 -41 -11 -6 -17 0 -1 -5 -1 -2 -1
-36 -32 -55 -24 -26 -18 -10 -18 -3 -1 -1 -4 0 0 0 -1 0 0 0 -4 -1 0 0 0 0 0 0 0 -11 -27 -38 -40 -40 -20 -15 -1 -26 -1 0 0 0 -1 -18
-4 -56 -75 -30 -20 -15 -12 -21 -2 0 -2 -1 0 0 0 0 0 0 0 -1 0 -15 0 -1 -7 0 -1 -2 -1 -32 -47 0 -46 -10 -19 -67 -71 -22 -23 -40 0 -29 -30
-37 -78 -95 -40 -13 -11 -1 -1 -6 0 0 0 0 0 0 0 -1 -2 -1 0 -1 -18 0 0 0 0 0 0 -25 0 0 0 -19 -27 -21 -49 -38 -13 -9 -9 0 0 0
-45 -83 -82 -34 -4 -3 -5 0 0 0 0 0 -2 -2 -1 0 -1 0 0 0 0 -2 -2 -1 0 0 -3 -17 -29 -49 -73 -61 -54 -11 -32 -78 -65 -35 0 -5 -40 -1 -10
-19 -92 -96 -65 -14 -10 0 -1 0 0 0 -1 -1 -2 0 0 0 0 0 -1 0 0 0 0 0 0 -3 -15 -32 -66 -78 -70 -56 -15 -44 0 0 0 -33 -30 0 -46 -4
-20 -48 -80 -62 -21 -9 -9 0 -1 0 0 0 -3 -7 0 -1 -2 -1 -3 -4 0 -5 0 0 0 -3 -16 -33 -47 -73 -85 -85 -30 -8 -66 0 0 -10 -48 -21 -5 -1 -43
-70 -39 -60 -58 -27 -10 -11 -7 0 -1 0 0 -1 -1 -1 -5 -6 -7 -7 -3 0 -8 0 -1 0 -10 -25 -47 -76 -83 -96 -74 -22 -44 -105 -79 0 -95 -30 -15 -33 -73 -97
-87 -57 -38 -36 -27 -6 -1 -8 -5 -2 -1 -4 0 -7 -5 -20 -6 -6 -11 -1 -3 -14 0 0 0 -4 -33 -24 -18 -57 -67 -63 -26 -47 -111 -111 -103 -96 -65 -21 -18 -33 -109
-92 -63 -15 -27 -26 -2 -4 -6 -1 -10 -6 -14 -4 -13 -14 -36 -31 -8 -19 -2 -5 -24 -38 -9 -17 -30 -29 -18 -8 -19 -18 -23 -8 -29 -112 -110 -94 -84 -88 -80 -31 -39 -37
-128 -92 -42 -24 -36 -18 -7 -8 -5 -6 -6 -17 -10 -32 -38 -37 -78 -40 -28 -19 -15 -20 -51 -24 -21 -35 -38 -8 -4 -2 -18 -27 -11 -31 -52 -76 -76 -78 -74 -70 -74 -42 -35
-121 -103 -76 -28 -36 -26 -18 -23 -18 -5 -10 -3 -13 -33 -31 -33 -37 -68 -56 -36 -32 -6 -11 -15 -8 -13 -10 -17 -22 -18 -18 -34 -18 -7 -33 -52 -52 -63 -60 -61 -73 -69 -47
-190 -144 -109 -54 -21 -40 -15 -21 -8 -7 -14 -4 -26 -10 -23 -13 -20 -33 -33 -39 -46 -25 -17 -10 -10 -1 -12 -5 -2 -16 -43 -39 -42 -25 -8 -33 -35 -47 -46 -50 -57 -59 -60
-197 -131 -138 -99 -53 -44 -24 -8 -5 -7 -6 -16 -7 -23 -16 -19 -21 -18 -21 -16 -27 -15 -21 -17 -18 -17 -13 -11 -12 -6 -25 -47 -58 -33 -9 -11 -23 -26 -36 -43 -32 -59 -67
-236 -188 -144 -156 -102 -57 -15 -1 -10 -7 -12 -13 -8 -26 -16 -8 -17 -19 -6 -8 -8 -7 -12 -17 -17 -11 -13 -12 -11 -8 -4 -4 -4 -6 -16 -20 -4 -19 -22 -35 -31 -45 -58
-230 -194 -163 -121 -138 -67 -10 -4 -12 -9 -9 -24 -13 -2 -13 -18 -20 -19 -10 -13 -7 -17 -15 -8 -16 -9 -24 -30 -18 -7 -7 -7 -5 -12 -5 -11 -2 -10 -14 -19 -34 -38 -41
-217 -216 -196 -167 -98 -84 -75 -90 -32 -100 -8 -19 -17 -10 -14 -9 -10 -25 -18 -10 -15 -21 -24 -21 -20 -17 -12 -3 -22 -24 -14 -9 -7 -9 -10 -13 -9 -22 -22 -14 -30 -37 -34
-224 -245 -182 -170 -145 -105 -118 -149 -110 -19 -32 -32 -5 -6 -4 -13 -14 -6 -6 -4 -2 -3 -15 -5 -11 -28 -31 -15 -16 -21 -24 -19 -8 -23 -27 -8 -7 -26 -23 -25 -25 -34 -29
-250 -236 -232 -126 -153 -122 -87 -92 -94 -65 -23 -36 -25 -17 -11 -12 -15 -18 -2 -12 -6 -7 -18 -30 -31 -23 -41 -34 -24 -21 -17 -21 -9 -8 -19 -25 -22 -21 -22 -28 -26 -23 -21
-238 -179 -208 -146 -103 -147 -134 -124 -115 -117 -96 -38 -9 -20 -16 -12 -1 -10 -14 -14 -2 -2 -16 -30 -19 -22 -33 -31 -20 -38 -28 -10 -14 -16 -17 -24 -19 -62 -9 -12 -17 -13 -10
-193 -180 -155 -173 -47 -100 -108 -128 -134 -159 -87 -95 -50 -38 -14 -27 -12 -12 -17 -15 -15 -9 -22 -18 -9 -7 -12 -16 -14 -12 -20 -17 -16 -11 -18 -21 -19 -24 -14 -12 -16 -9 -10
-146 -149 -137 -152 -109 -51 -70 -49 -120 -137 -132 -117 -135 -43 -28 -12 -14 -8 -7 -15 -16 -13 -17 -22 -15 -13 -19 -18 -14 -20 -13 -9 -20 -12 -12 -23 -8 -34 -8 -19 -16 -9 -14
Wind_Speed
20 24 23 22 23 25 26 25 22 20 19 4 5 6 6 5 5 9 7 8 18 25 23 25 25 21 16 13 12 8 8 10 11 5 6 6 6 2 23 28 27 27 28
21 23 22 21 22 22 24 25 25 27 17 6 13 12 10 8 10 12 12 9 13 18 25 24 24 20 17 20 14 10 9 15 27 27 25 2 5 4 4 12 24 28 27
20 22 22 21 21 20 20 22 24 25 28 17 11 14 11 13 15 14 15 12 14 13 18 22 12 19 14 17 15 12 16 26 28 29 30 23 3 5 13 21 25 26 26
20 20 20 20 19 17 16 17 19 22 24 21 6 17 17 17 18 16 16 13 14 13 16 14 10 14 17 15 15 9 19 22 27 27 24 22 16 9 15 19 24 25 25
20 21 17 18 17 17 14 13 15 18 19 19 14 14 16 18 19 20 15 11 13 8 14 15 12 17 17 14 13 16 22 25 23 21 19 15 17 19 20 22 22 25 23
21 20 18 17 17 16 14 13 13 14 16 16 23 19 16 24 22 19 14 12 12 12 11 15 11 17 19 18 16 21 24 20 18 17 9 13 15 18 20 13 16 19 20
25 21 19 18 18 17 15 16 15 13 11 12 15 25 26 25 23 22 18 15 13 13 13 10 10 14 12 14 18 23 23 22 19 15 12 11 15 17 16 18 17 18 20
26 22 21 20 19 19 16 15 17 17 14 12 8 9 22 19 20 21 21 19 15 12 16 9 11 4 14 14 20 23 22 19 16 21 13 14 16 13 18 18 18 19 19
25 22 21 21 20 20 19 16 16 18 18 15 10 6 7 9 12 20 17 20 13 11 13 11 8 8 11 14 19 22 21 19 17 14 11 13 15 13 14 14 16 18 20
24 22 21 22 22 20 19 17 12 10 17 18 11 4 7 7 11 15 10 12 8 13 10 9 9 10 10 16 21 22 22 20 21 17 11 13 15 13 14 16 19 18 20
22 21 20 19 21 22 19 18 15 12 11 9 9 8 4 7 9 4 7 7 4 6 14 13 11 11 13 16 22 23 22 21 22 18 9 15 15 14 16 17 16 18 18
21 20 20 19 20 21 21 17 17 13 7 8 8 10 9 13 7 7 4 3 9 13 13 5 9 15 18 19 21 23 22 21 21 7 10 13 14 14 15 17 18 16 16
20 20 19 20 19 20 21 13 16 11 11 14 6 7 6 5 10 13 4 6 11 13 18 9 11 21 27 27 19 18 23 22 19 6 10 12 12 12 13 14 16 12 13
18 19 20 21 22 20 15 14 16 10 11 11 6 3 2 3 8 11 10 7 6 6 28 5 13 28 28 28 19 25 21 22 14 9 8 10 10 10 9 10 11 10 10
18 19 21 20 22 23 20 18 19 15 11 12 6 7 6 2 13 17 16 17 4 2 18 11 11 18 26 27 22 19 18 23 19 7 7 7 7 8 8 8 8 8 7
16 18 20 20 21 23 21 23 22 16 11 8 7 8 8 12 12 17 15 18 18 7 2 13 16 7 4 16 24 19 24 25 23 16 8 8 6 7 5 6 6 6 6
15 18 18 20 20 22 23 22 21 17 14 10 8 8 9 6 11 13 14 8 23 21 20 18 17 13 8 17 18 9 17 27 27 25 21 10 10 6 8 3 3 3 5
15 16 18 18 19 20 24 22 22 16 15 15 14 9 6 6 4 4 10 3 6 6 12 16 17 17 17 19 18 13 6 9 16 26 25 25 12 11 7 3 3 2 3
14 16 17 17 19 19 22 19 19 16 17 14 15 12 11 8 4 6 7 9 12 8 8 14 16 15 21 24 22 21 19 15 16 13 10 22 20 11 11 4 2 0 1
13 14 15 15 17 18 19 18 18 19 17 16 15 14 12 8 7 5 14 19 6 13 16 16 15 16 18 23 26 25 19 21 24 28 25 14 19 21 14 9 6 6 3
13 13 15 14 15 17 16 18 18 20 17 16 16 11 6 12 11 10 7 7 12 12 13 14 18 20 23 17 22 28 27 25 26 28 27 26 19 18 17 15 9 9 6
15 15 14 15 14 15 15 17 15 15 15 14 12 12 7 10 11 10 10 4 7 8 13 15 15 18 23 22 23 25 27 27 28 24 23 22 19 15 14 10 10 7 5
19 18 15 15 15 15 14 14 15 14 11 11 12 13 11 8 9 10 8 10 5 6 10 14 13 17 22 22 20 22 24 26 26 23 18 17 19 20 14 7 6 5 5
21 18 17 16 14 16 16 13 13 10 9 9 10 11 9 9 8 10 12 10 7 5 6 11 13 16 13 21 23 20 26 29 26 27 22 20 25 30 18 15 11 8 9
17 18 16 17 15 15 15 14 12 10 9 8 6 8 9 8 10 8 8 10 8 4 5 11 10 11 12 17 21 26 27 30 33 30 31 23 18 23 23 19 21 19 10
15 16 16 18 19 16 15 15 13 12 9 7 8 6 6 6 9 9 8 5 5 5 1 8 10 11 20 14 25 33 30 26 27 27 30 30 26 22 22 18 17 16 15
Wind_Direction
103 113 109 102 105 112 113 109 99 91 94 213 219 221 216 230 226 208 210 208 178 160 167 164 158 172 187 197 200 213 215 200 198 224 11 10 14 312 131 116 70 77 75
102 113 110 103 101 104 110 115 115 122 90 225 205 208 213 224 216 211 209 216 199 184 159 164 164 179 189 175 197 207 212 186 131 101 85 343 215 235 347 45 66 81 75
101 110 112 107 103 98 98 107 118 123 136 96 224 209 219 214 205 210 207 217 208 209 192 178 210 181 201 187 194 204 184 145 129 114 105 71 348 345 29 56 70 78 76
103 110 110 109 103 96 89 91 102 114 123 111 62 210 204 203 204 209 207 219 212 213 205 211 223 203 189 196 199 218 181 168 140 136 158 84 50 22 42 53 76 79 78
102 114 109 109 104 99 89 82 85 101 108 106 93 227 218 205 204 198 218 231 220 243 212 210 219 196 198 207 208 195 177 161 158 163 178 62 61 72 65 76 75 91 75
109 114 113 111 107 101 94 87 84 86 97 99 126 216 221 185 194 205 228 231 235 232 234 215 229 203 192 195 199 182 175 184 190 187 17 53 55 71 73 41 48 60 67
118 113 114 114 112 107 98 99 94 88 81 87 97 153 180 184 195 199 213 224 234 232 231 238 235 216 214 211 200 181 182 180 189 201 51 40 61 72 60 71 61 63 70
112 116 116 120 118 115 109 103 103 102 94 86 70 259 208 216 210 206 206 215 231 242 222 250 234 281 217 219 196 186 184 201 208 171 60 58 74 56 77 73 80 78 77
111 114 119 123 124 122 120 111 110 113 110 101 82 53 283 271 253 212 231 208 246 250 237 241 257 253 232 223 204 195 198 205 213 224 54 53 70 61 68 59 68 83 104
111 117 123 129 133 129 127 121 106 93 116 116 91 349 292 289 263 242 270 258 277 247 256 257 261 249 248 232 209 194 196 212 202 210 65 61 74 71 80 92 117 104 123
107 118 123 129 136 139 132 130 121 112 103 91 85 84 333 291 277 327 285 276 320 305 249 246 251 251 251 240 210 201 207 207 201 215 52 76 77 78 99 107 92 114 127
112 119 127 130 138 141 140 131 133 122 101 100 96 98 99 266 299 297 317 308 272 257 254 283 262 244 238 235 223 209 214 205 215 39 63 81 77 82 99 119 132 114 122
116 119 128 137 140 142 147 124 135 124 123 134 105 107 94 320 284 269 292 295 273 261 243 270 266 236 207 212 250 254 211 205 234 32 81 86 73 78 99 107 126 99 107
121 127 131 138 146 146 136 132 140 127 132 128 113 95 9 50 282 273 271 289 294 302 199 90 267 202 201 203 263 241 251 241 309 319 74 79 68 75 82 92 106 95 89
135 127 133 136 145 152 147 146 152 143 133 136 126 127 121 99 136 258 263 259 307 28 155 126 130 146 188 227 256 260 268 252 275 20 21 69 55 63 79 94 100 101 83
122 125 134 136 142 152 152 157 159 145 142 137 130 132 134 138 133 143 263 256 258 281 343 152 276 145 305 274 257 273 258 254 263 286 348 344 2 7 33 87 101 95 91
130 128 129 137 140 151 156 157 160 151 147 142 139 151 140 134 139 144 142 142 250 259 264 270 277 286 297 279 280 305 282 254 258 267 281 322 321 349 337 55 61 74 114
135 128 129 135 140 146 156 154 158 144 143 156 150 148 152 144 155 143 147 139 145 287 283 279 277 278 282 280 284 296 309 308 279 263 274 272 308 314 332 3 5 87 139
144 141 132 132 137 142 150 148 152 148 155 146 156 149 158 156 199 255 276 280 278 285 291 283 280 283 278 271 276 280 287 292 291 298 303 280 292 312 316 320 290 158 152
155 147 140 129 135 136 142 143 150 161 159 161 157 155 158 160 163 216 274 271 272 280 283 282 283 285 282 276 270 278 285 284 283 274 283 295 292 291 304 312 315 313 288
165 160 153 142 133 135 138 147 147 159 156 158 167 154 149 162 165 168 177 274 284 285 286 284 283 281 279 287 282 273 277 281 281 280 282 283 291 293 296 300 305 309 311
174 170 163 155 146 142 140 147 145 147 152 151 149 159 134 157 164 170 176 250 273 283 281 286 290 287 284 284 285 283 281 282 279 285 284 286 291 293 295 293 299 301 303
179 175 174 165 158 152 143 136 145 146 134 137 152 158 156 160 168 173 176 191 251 276 288 283 287 287 283 288 284 282 284 283 286 292 282 284 290 290 292 265 262 276 299
180 177 176 174 169 163 157 149 148 139 141 133 133 148 145 147 159 175 181 181 194 237 244 287 285 286 285 283 285 282 280 279 287 286 297 286 284 270 294 303 308 296 304
192 185 184 180 178 176 170 163 158 153 143 139 119 131 136 140 152 158 167 178 186 219 253 288 289 283 289 290 287 280 279 278 276 278 279 291 297 284 291 297 295 301 309
202 197 192 186 185 187 184 177 174 168 155 141 144 129 132 129 146 152 154 155 166 172 198 285 287 300 288 298 288 272 276 284 283 283 280 280 285 291 291 298 305 301 310